Hourly Weather Ludmierzyce

Today, 20 June, Sunday

Time Temperature Precipitation Wind Pressure Humidity
00:00 +21°C° 0 mm 1 mps 734 mmHg 83%
01:00 +21°C° 0 mm 1 mps 734 mmHg 83%
02:00 +20°C° 0 mm 1 mps 734 mmHg 84%
03:00 +20°C° 0 mm 1 mps 733 mmHg 84%
04:00 +20°C° 0 mm 1 mps 733 mmHg 85%
05:00 +22°C° 0 mm 1 mps 733 mmHg 80%
06:00 +23°C° 0 mm 1 mps 734 mmHg 74%
07:00 +25°C° 0 mm 1 mps 734 mmHg 69%
08:00 +27°C° 0 mm 1 mps 734 mmHg 64%
09:00 +28°C° 0 mm 1 mps 734 mmHg 58%
10:00 +30°C° 0 mm 1 mps 734 mmHg 53%
11:00 +30°C° 0 mm 1 mps 734 mmHg 50%
12:00 +31°C° 0 mm 1 mps 733 mmHg 48%
13:00 +32°C° 0 mm 1 mps 733 mmHg 45%
14:00 +32°C° 0 mm 1 mps 733 mmHg 45%
15:00 +32°C° 0 mm 1 mps 733 mmHg 44%
16:00 +32°C° 0 mm 1 mps 732 mmHg 44%
17:00 +30°C° 0 mm 2 mps 732 mmHg 52%
18:00 +28°C° 0 mm 2 mps 732 mmHg 60%
19:00 +26°C° 0 mm 3 mps 731 mmHg 67%
20:00 +25°C° 0 mm 2 mps 731 mmHg 71%
21:00 +23°C° 0 mm 2 mps 732 mmHg 74%
22:00 +22°C° 0 mm 1 mps 732 mmHg 77%
23:00 +21°C° 0 mm 1 mps 731 mmHg 79%

Tomorrow, 21 June, Monday

Time Temperature Precipitation Wind Pressure Humidity
00:00 +21°C° 0 mm 1 mps 731 mmHg 80%
01:00 +20°C° 0 mm 1 mps 731 mmHg 81%
02:00 +20°C° 0 mm 1 mps 730 mmHg 81%
03:00 +20°C° 0 mm 1 mps 730 mmHg 82%
04:00 +20°C° 0 mm 1 mps 730 mmHg 82%
05:00 +22°C° 0 mm 1 mps 730 mmHg 77%
06:00 +24°C° 0 mm 1 mps 730 mmHg 72%
07:00 +26°C° 0 mm 1 mps 731 mmHg 67%
08:00 +27°C° 0 mm 2 mps 731 mmHg 62%
09:00 +29°C° 0 mm 2 mps 731 mmHg 57%
10:00 +30°C° 0 mm 2 mps 731 mmHg 53%
11:00 +31°C° 0 mm 2 mps 731 mmHg 50%
12:00 +31°C° 0 mm 2 mps 730 mmHg 48%
13:00 +33°C° 0 mm 3 mps 730 mmHg 45%
14:00 +32°C° 0.1 mm 2 mps 730 mmHg 47%
15:00 +32°C° 0.1 mm 2 mps 730 mmHg 48%
16:00 +31°C° 0.1 mm 2 mps 730 mmHg 50%
17:00 +30°C° 0.2 mm 2 mps 730 mmHg 58%
18:00 +28°C° 0.2 mm 2 mps 730 mmHg 65%
19:00 +26°C° 0.2 mm 2 mps 730 mmHg 73%
20:00 +25°C° 1.6 mm 3 mps 730 mmHg 81%
21:00 +22°C° 1.6 mm 3 mps 730 mmHg 88%
22:00 +20°C° 1.6 mm 4 mps 731 mmHg 96%
23:00 +20°C° 2.2 mm 3 mps 731 mmHg 96%

Day after tomorrow, 22 June, Tuesday

Time Temperature Precipitation Wind Pressure Humidity
00:00 +20°C° 2.2 mm 2 mps 731 mmHg 96%
01:00 +20°C° 2.2 mm 1 mps 731 mmHg 97%
02:00 +20°C° 0.2 mm 1 mps 731 mmHg 97%
03:00 +20°C° 0.2 mm 1 mps 731 mmHg 97%
04:00 +20°C° 0.2 mm 1 mps 731 mmHg 97%
05:00 +20°C° 0.2 mm 1 mps 731 mmHg 95%
06:00 +20°C° 0.2 mm 2 mps 732 mmHg 93%
07:00 +21°C° 0.2 mm 2 mps 732 mmHg 91%
08:00 +21°C° 0.4 mm 2 mps 732 mmHg 89%
09:00 +23°C° 0.4 mm 2 mps 733 mmHg 87%
10:00 +23°C° 0.4 mm 2 mps 733 mmHg 85%
11:00 +25°C° 0.1 mm 2 mps 733 mmHg 80%
12:00 +26°C° 0.1 mm 2 mps 733 mmHg 75%
13:00 +27°C° 0.1 mm 2 mps 733 mmHg 70%
14:00 +28°C° 0.1 mm 2 mps 733 mmHg 68%
15:00 +28°C° 0.1 mm 2 mps 733 mmHg 67%
16:00 +28°C° 0.1 mm 3 mps 733 mmHg 65%
17:00 +27°C° 0.6 mm 2 mps 733 mmHg 71%
18:00 +26°C° 0.6 mm 2 mps 732 mmHg 76%
19:00 +25°C° 0.6 mm 2 mps 732 mmHg 81%
20:00 +24°C° 1.3 mm 2 mps 732 mmHg 84%
21:00 +23°C° 1.3 mm 2 mps 732 mmHg 87%
22:00 +21°C° 1.3 mm 2 mps 732 mmHg 90%
23:00 +21°C° 0.4 mm 2 mps 732 mmHg 91%

23 June, Wednesday

Time Temperature Precipitation Wind Pressure Humidity
00:00 +21°C° 0.4 mm 1 mps 732 mmHg 92%
01:00 +21°C° 0.4 mm 1 mps 732 mmHg 93%
02:00 +20°C° 0.6 mm 2 mps 732 mmHg 94%
03:00 +20°C° 0.6 mm 2 mps 733 mmHg 94%
04:00 +19°C° 0.6 mm 3 mps 733 mmHg 95%
05:00 +20°C° 0.3 mm 2 mps 733 mmHg 92%
06:00 +21°C° 0.3 mm 2 mps 733 mmHg 89%
07:00 +23°C° 0.3 mm 1 mps 733 mmHg 87%
08:00 +24°C° 0 mm 2 mps 734 mmHg 81%
09:00 +25°C° 0 mm 2 mps 734 mmHg 75%
10:00 +27°C° 0 mm 2 mps 735 mmHg 69%
11:00 +27°C° 0.2 mm 2 mps 735 mmHg 67%
12:00 +28°C° 0.2 mm 2 mps 735 mmHg 65%
13:00 +28°C° 0.2 mm 2 mps 735 mmHg 63%
14:00 +28°C° 0.2 mm 2 mps 735 mmHg 65%
15:00 +27°C° 0.2 mm 3 mps 736 mmHg 67%
16:00 +27°C° 0.2 mm 4 mps 736 mmHg 69%
17:00 +25°C° 0.1 mm 4 mps 736 mmHg 74%
18:00 +23°C° 0.1 mm 4 mps 736 mmHg 79%
19:00 +21°C° 0.1 mm 5 mps 736 mmHg 84%
20:00 +20°C° 0 mm 4 mps 737 mmHg 87%
21:00 +18°C° 0 mm 4 mps 737 mmHg 90%
22:00 +17°C° 0 mm 3 mps 738 mmHg 93%
23:00 +16°C° 0 mm 3 mps 738 mmHg 94%

24 June, Thursday

Time Temperature Precipitation Wind Pressure Humidity
00:00 +16°C° 0 mm 3 mps 738 mmHg 95%
01:00 +15°C° 0 mm 2 mps 738 mmHg 96%
02:00 +15°C° 0 mm 2 mps 737 mmHg 96%
03:00 +14°C° 0 mm 2 mps 737 mmHg 96%
04:00 +14°C° 0 mm 2 mps 737 mmHg 96%
05:00 +15°C° 0.6 mm 2 mps 737 mmHg 95%
06:00 +16°C° 0.6 mm 2 mps 737 mmHg 93%
07:00 +17°C° 0.6 mm 2 mps 737 mmHg 91%
08:00 +17°C° 2 mm 2 mps 737 mmHg 92%
09:00 +18°C° 2 mm 2 mps 737 mmHg 93%
10:00 +18°C° 2 mm 2 mps 737 mmHg 94%
11:00 +19°C° 0.2 mm 2 mps 737 mmHg 91%
12:00 +20°C° 0.2 mm 2 mps 737 mmHg 88%
13:00 +21°C° 0.2 mm 2 mps 737 mmHg 86%
14:00 +21°C° 0.1 mm 2 mps 737 mmHg 86%
15:00 +21°C° 0.1 mm 2 mps 737 mmHg 86%
16:00 +21°C° 0.1 mm 3 mps 737 mmHg 86%
17:00 +20°C° 0 mm 3 mps 737 mmHg 86%
18:00 +20°C° 0 mm 3 mps 737 mmHg 87%
19:00 +19°C° 0 mm 3 mps 737 mmHg 87%
20:00 +19°C° 0.1 mm 3 mps 737 mmHg 89%
21:00 +18°C° 0.1 mm 2 mps 737 mmHg 90%
22:00 +17°C° 0.1 mm 2 mps 737 mmHg 91%
23:00 +17°C° 0.2 mm 2 mps 737 mmHg 93%

25 June, Friday

Time Temperature Precipitation Wind Pressure Humidity
00:00 +17°C° 0.2 mm 3 mps 737 mmHg 94%
01:00 +16°C° 0.2 mm 3 mps 737 mmHg 95%
02:00 +16°C° 0 mm 3 mps 737 mmHg 95%
03:00 +16°C° 0 mm 3 mps 737 mmHg 95%
04:00 +16°C° 0 mm 3 mps 737 mmHg 95%
05:00 +16°C° 0 mm 3 mps 737 mmHg 95%
06:00 +16°C° 0 mm 3 mps 737 mmHg 95%
07:00 +15°C° 0 mm 4 mps 737 mmHg 95%
08:00 +15°C° 0 mm 4 mps 737 mmHg 92%
09:00 +17°C° 0 mm 4 mps 737 mmHg 88%
10:00 +17°C° 0 mm 4 mps 737 mmHg 85%
11:00 +18°C° 0 mm 4 mps 737 mmHg 83%
12:00 +19°C° 0 mm 4 mps 737 mmHg 80%
13:00 +19°C° 0 mm 4 mps 737 mmHg 78%
14:00 +20°C° 0.1 mm 3 mps 737 mmHg 77%
15:00 +20°C° 0.1 mm 3 mps 737 mmHg 77%
16:00 +20°C° 0.1 mm 3 mps 737 mmHg 77%
17:00 +19°C° 0.3 mm 3 mps 736 mmHg 81%
18:00 +19°C° 0.3 mm 2 mps 736 mmHg 84%
19:00 +18°C° 0.3 mm 2 mps 735 mmHg 88%
20:00 +18°C° 0.5 mm 2 mps 736 mmHg 90%
21:00 +17°C° 0.5 mm 2 mps 736 mmHg 92%
22:00 +17°C° 0.5 mm 3 mps 736 mmHg 94%
23:00 +16°C° 1.2 mm 3 mps 736 mmHg 95%
Show more

We Need Your Consent

Meteoprog and our Service Providers may store and access personal data such as cookies, device identifiers or other similar technologies on your device and process such data to personalise content and ads, as well as provide social media features and to analyse the traffic.

  • Store and/or access information on your device

    Cookies, device identifiers or other information can be stored or accessed on your device for the purposes indicated above.

  • Personalised ads and content, ad and content measurement, audience insights, and products development

    Ads and content can be personalised based on a profile. More data can be added to better personalise ads and content. Ad and content performance can be measured. Insights about the audience who saw the ads and content can be derived. Such data can be used to develop or improve user’s experience, systems and software.

By clicking ‘I Agree’ you will allow the use of indicated cookies, device identifiers, web beacons or other similar technologies. Your settings can be changed in the browser on your device.

For certain purposes, legitimate interests may be relied on, rather than consent. You can read more about this in our Privacy and Cookie Policy.